Flag for Canada Weather past 2 weeks in Caledon, Ontario, Canada

Now
59 °F

Light rain. Overcast.


Feels Like: 60 °F
Forecast: 62 / 76 °F
Wind: 3 mph from South

Location: Borden

Current Time: May 25, 2015 at 10:07:52 AM

Latest Report: May 25, 2015 at 9:00 AM


Visibility: 4 mi

Pressure: 30.07 "Hg

Humidity: 100%

Dew point: 59 °F

Location of CaledonLocation

Historic Weather in Caledon — Graph

°F

Caledon temperature yesterday

Maximum temperature yesterday: 81 °F (at 2:00 PM)
Minimum temperature yesterday: 55 °F (at 12:00 AM)
Average temperature yesterday: 69 °F

Past Weeks' High & Low Weather Summary

 TemperatureHumidityPressure
High86 °F (May 18, 3:00 PM)100% (May 10, 8:00 AM)30.50 "Hg (May 10, 8:00 AM)
Low27 °F (May 14, 4:00 AM)20% (May 24, 2:00 PM)29.72 "Hg (May 12, 1:00 AM)
Average55 °F69%30.09 "Hg
* Reported May 10 8:00 AM — May 25 8:00 AM, Caledon, Weather by CustomWeather, © 2015

Note: Actual official high and low records may vary slightly from our data, if they occured in-between our weather recording intervals... More about our weather records

Advertising

Caledon weather history for previous 24 hours

 ConditionsComfort  
Time TempWeatherWind HumidityBarometerVisibility
8:00 AM
Mon, May 25
59 °FLow clouds.6 mph100%30.09 "Hg9 mi
7:00 AM59 °FOvercast.2 mph100%30.10 "Hg7 mi
6:00 AM57 °FLight rain. Mostly cloudy.2 mph100%30.11 "Hg5 mi
5:00 AM59 °FLight rain. Overcast.No wind94%30.10 "Hg9 mi
4:00 AM57 °FLight rain. Overcast.6 mph100%30.11 "Hg8 mi
3:00 AM59 °FLight rain. Overcast.No wind94%30.14 "Hg6 mi
2:00 AM63 °FLight rain. Overcast.6 mph73%30.13 "Hg9 mi
1:47 AM64 °FLight rain. Overcast.7 mph64%30.14 "Hg9 mi
1:00 AM63 °FOvercast.2 mph68%30.13 "Hg9 mi
12:59 AM63 °FOvercast.No wind73%30.14 "Hg9 mi
12:00 AM66 °FOvercast.No wind49%30.12 "Hg9 mi
11:00 PM
Sun, May 24
68 °FPassing clouds.2 mph46%30.14 "Hg9 mi
10:00 PM70 °FClear.7 mph46%30.13 "Hg9 mi
9:00 PM68 °FSunny.2 mph49%30.11 "Hg9 mi
8:00 PM73 °FSunny.3 mph36%30.12 "Hg9 mi
7:00 PM77 °FPassing clouds.8 mph30%30.13 "Hg9 mi
6:00 PM77 °FSunny.5 mph30%30.14 "Hg9 mi
5:00 PM79 °FSunny.9 mph28%30.14 "Hg9 mi
4:00 PM81 °FSunny.13 mph20%30.15 "Hg9 mi
3:00 PM81 °FSunny.14 mph21%30.17 "Hg9 mi
2:00 PM81 °FPassing clouds.8 mph20%30.18 "Hg9 mi
1:00 PM79 °FSunny.9 mph21%30.20 "Hg9 mi
12:00 PM77 °FSunny.9 mph22%30.20 "Hg9 mi
11:00 AM75 °FPassing clouds.7 mph29%30.20 "Hg9 mi
10:00 AM72 °FSunny.8 mph31%30.21 "Hg9 mi
Weather by CustomWeather, © 2015

See weather overviewHow to use our weather pages